Year,Month,Day,Hour,Minute,Value (Times are PST for temperature in C)
2009,09,22,00,00,11.80
2009,09,22,00,01,11.80
2009,09,22,00,02,11.80
2009,09,22,00,03,11.80
2009,09,22,00,04,11.70
2009,09,22,00,05,11.70
2009,09,22,00,06,11.70
2009,09,22,00,07,11.70
2009,09,22,00,08,11.70
2009,09,22,00,09,11.70
2009,09,22,00,10,11.70
2009,09,22,00,11,11.70
2009,09,22,00,12,11.70
2009,09,22,00,13,11.70
2009,09,22,00,14,11.70
2009,09,22,00,15,11.70
2009,09,22,00,16,11.70
2009,09,22,00,17,11.60
2009,09,22,00,18,11.70
2009,09,22,00,19,11.70
2009,09,22,00,20,11.70
2009,09,22,00,21,11.70
2009,09,22,00,22,11.70
2009,09,22,00,23,11.70
2009,09,22,00,24,11.70
2009,09,22,00,25,11.70
2009,09,22,00,26,11.70
2009,09,22,00,27,11.70
2009,09,22,00,28,11.70
2009,09,22,00,29,11.70
2009,09,22,00,30,11.70
2009,09,22,00,31,11.80
2009,09,22,00,32,11.80
2009,09,22,00,33,11.80
2009,09,22,00,34,11.80
2009,09,22,00,35,11.80
2009,09,22,00,36,11.90
2009,09,22,00,37,11.90
2009,09,22,00,38,11.90
2009,09,22,00,39,11.90
2009,09,22,00,40,11.90
2009,09,22,00,41,11.90
2009,09,22,00,42,11.90
2009,09,22,00,43,11.90
2009,09,22,00,44,11.80
2009,09,22,00,45,11.80
2009,09,22,00,46,11.80
2009,09,22,00,47,11.80
2009,09,22,00,48,11.70
2009,09,22,00,49,11.70
2009,09,22,00,50,11.70
2009,09,22,00,51,11.70
2009,09,22,00,52,11.70
2009,09,22,00,53,11.70
2009,09,22,00,54,11.70
2009,09,22,00,55,11.70
2009,09,22,00,56,11.60
2009,09,22,00,57,11.70
2009,09,22,00,58,11.70
2009,09,22,00,59,11.70
2009,09,22,01,00,11.60
2009,09,22,01,01,11.60
2009,09,22,01,02,11.60
2009,09,22,01,03,11.60
2009,09,22,01,04,11.60
2009,09,22,01,05,11.60
2009,09,22,01,06,11.60
2009,09,22,01,07,11.60
2009,09,22,01,08,11.70
2009,09,22,01,09,11.70
2009,09,22,01,10,11.70
2009,09,22,01,11,11.70
2009,09,22,01,12,11.70
2009,09,22,01,13,11.70
2009,09,22,01,14,11.70
2009,09,22,01,15,11.70
2009,09,22,01,16,11.70
2009,09,22,01,17,11.80
2009,09,22,01,18,11.80
2009,09,22,01,19,11.80
2009,09,22,01,20,11.80
2009,09,22,01,21,11.80
2009,09,22,01,22,11.80
2009,09,22,01,23,11.80
2009,09,22,01,24,11.80
2009,09,22,01,25,11.80
2009,09,22,01,26,11.80
2009,09,22,01,27,11.80
2009,09,22,01,28,11.80
2009,09,22,01,29,11.80
2009,09,22,01,30,11.80
2009,09,22,01,31,11.80
2009,09,22,01,32,11.80
2009,09,22,01,33,11.80
2009,09,22,01,34,11.80
2009,09,22,01,35,11.80
2009,09,22,01,36,11.80
2009,09,22,01,37,11.80
2009,09,22,01,38,11.80
2009,09,22,01,39,11.80
2009,09,22,01,40,11.80
2009,09,22,01,41,11.80
2009,09,22,01,42,11.80
2009,09,22,01,43,11.80
2009,09,22,01,44,11.80
2009,09,22,01,45,11.80
2009,09,22,01,46,11.70
2009,09,22,01,47,11.70
2009,09,22,01,48,11.70
2009,09,22,01,49,11.70
2009,09,22,01,50,11.70
2009,09,22,01,51,11.70
2009,09,22,01,52,11.70
2009,09,22,01,53,11.70
2009,09,22,01,54,11.70
2009,09,22,01,55,11.70
2009,09,22,01,56,11.70
2009,09,22,01,57,11.70
2009,09,22,01,58,11.60
2009,09,22,01,59,11.60
2009,09,22,02,00,11.60
2009,09,22,02,01,11.60
2009,09,22,02,02,11.60
2009,09,22,02,03,11.60
2009,09,22,02,04,11.60
2009,09,22,02,05,11.60
2009,09,22,02,06,11.60
2009,09,22,02,07,11.60
2009,09,22,02,08,11.50
2009,09,22,02,09,11.50
2009,09,22,02,10,11.40
2009,09,22,02,11,11.40
2009,09,22,02,12,11.40
2009,09,22,02,13,11.40
2009,09,22,02,14,11.40
2009,09,22,02,15,11.30
2009,09,22,02,16,11.30
2009,09,22,02,17,11.30
2009,09,22,02,18,11.30
2009,09,22,02,19,11.30
2009,09,22,02,20,11.30
2009,09,22,02,21,11.30
2009,09,22,02,22,11.30
2009,09,22,02,23,11.30
2009,09,22,02,24,11.30
2009,09,22,02,25,11.30
2009,09,22,02,26,11.40
2009,09,22,02,27,11.40
2009,09,22,02,28,11.40
2009,09,22,02,29,11.40
2009,09,22,02,30,11.40
2009,09,22,02,31,11.40
2009,09,22,02,32,11.40
2009,09,22,02,33,11.40
2009,09,22,02,34,11.40
2009,09,22,02,35,11.40
2009,09,22,02,36,11.40
2009,09,22,02,37,11.40
2009,09,22,02,38,11.40
2009,09,22,02,39,11.40
2009,09,22,02,40,11.40
2009,09,22,02,41,11.30
2009,09,22,02,42,11.30
2009,09,22,02,43,11.30
2009,09,22,02,44,11.30
2009,09,22,02,45,11.40
2009,09,22,02,46,11.40
2009,09,22,02,47,11.40
2009,09,22,02,48,11.50
2009,09,22,02,49,11.50
2009,09,22,02,50,11.60
2009,09,22,02,51,11.60
2009,09,22,02,52,11.60
2009,09,22,02,53,11.70
2009,09,22,02,54,11.70
2009,09,22,02,55,11.70
2009,09,22,02,56,11.70
2009,09,22,02,57,11.70
2009,09,22,02,58,11.80
2009,09,22,02,59,11.80
2009,09,22,03,00,11.80
2009,09,22,03,01,11.90
2009,09,22,03,02,11.90
2009,09,22,03,03,11.90
2009,09,22,03,04,11.90
2009,09,22,03,05,11.90
2009,09,22,03,06,11.90
2009,09,22,03,07,11.90
2009,09,22,03,08,11.90
2009,09,22,03,09,11.90
2009,09,22,03,10,11.90
2009,09,22,03,11,11.90
2009,09,22,03,12,11.90
2009,09,22,03,13,11.90
2009,09,22,03,14,11.90
2009,09,22,03,15,11.90
2009,09,22,03,16,12.00
2009,09,22,03,17,12.00
2009,09,22,03,18,12.00
2009,09,22,03,19,12.00
2009,09,22,03,20,12.00
2009,09,22,03,21,12.00
2009,09,22,03,22,12.00
2009,09,22,03,23,12.00
2009,09,22,03,24,11.90
2009,09,22,03,25,11.90
2009,09,22,03,26,11.90
2009,09,22,03,27,11.80
2009,09,22,03,28,11.80
2009,09,22,03,29,11.80
2009,09,22,03,30,11.80
2009,09,22,03,31,11.80
2009,09,22,03,32,11.70
2009,09,22,03,33,11.70
2009,09,22,03,34,11.70
2009,09,22,03,35,11.70
2009,09,22,03,36,11.60
2009,09,22,03,37,11.60
2009,09,22,03,38,11.60
2009,09,22,03,39,11.60
2009,09,22,03,40,11.60
2009,09,22,03,41,11.60
2009,09,22,03,42,11.60
2009,09,22,03,43,11.60
2009,09,22,03,44,11.60
2009,09,22,03,45,11.60
2009,09,22,03,46,11.60
2009,09,22,03,47,11.60
2009,09,22,03,48,11.50
2009,09,22,03,49,11.50
2009,09,22,03,50,11.60
2009,09,22,03,51,11.50
2009,09,22,03,52,11.50
2009,09,22,03,53,11.50
2009,09,22,03,54,11.50
2009,09,22,03,55,11.40
2009,09,22,03,56,11.40
2009,09,22,03,57,11.40
2009,09,22,03,58,11.40
2009,09,22,03,59,11.40
2009,09,22,04,00,11.40
2009,09,22,04,01,11.40
2009,09,22,04,02,11.40
2009,09,22,04,03,11.40
2009,09,22,04,04,11.40
2009,09,22,04,05,11.30
2009,09,22,04,06,11.30
2009,09,22,04,07,11.30
2009,09,22,04,08,11.30
2009,09,22,04,09,11.30
2009,09,22,04,10,11.30
2009,09,22,04,11,11.30
2009,09,22,04,12,11.30
2009,09,22,04,13,11.30
2009,09,22,04,14,11.30
2009,09,22,04,15,11.30
2009,09,22,04,16,11.30
2009,09,22,04,17,11.30
2009,09,22,04,18,11.30
2009,09,22,04,19,11.30
2009,09,22,04,20,11.30
2009,09,22,04,21,11.30
2009,09,22,04,22,11.30
2009,09,22,04,23,11.30
2009,09,22,04,24,11.30
2009,09,22,04,25,11.30
2009,09,22,04,26,11.30
2009,09,22,04,27,11.30
2009,09,22,04,28,11.30
2009,09,22,04,29,11.30
2009,09,22,04,30,11.30
2009,09,22,04,31,11.30
2009,09,22,04,32,11.20
2009,09,22,04,33,11.20
2009,09,22,04,34,11.20
2009,09,22,04,35,11.20
2009,09,22,04,36,11.20
2009,09,22,04,37,11.20
2009,09,22,04,38,11.10
2009,09,22,04,39,11.10
2009,09,22,04,40,11.10
2009,09,22,04,41,11.10
2009,09,22,04,42,11.10
2009,09,22,04,43,11.10
2009,09,22,04,44,11.10
2009,09,22,04,45,11.10
2009,09,22,04,46,11.10
2009,09,22,04,47,11.10
2009,09,22,04,48,11.10
2009,09,22,04,49,11.10
2009,09,22,04,50,11.10
2009,09,22,04,51,11.10
2009,09,22,04,52,11.20
2009,09,22,04,53,11.20
2009,09,22,04,54,11.20
2009,09,22,04,55,11.20
2009,09,22,04,56,11.20
2009,09,22,04,57,11.20
2009,09,22,04,58,11.10
2009,09,22,04,59,11.10
2009,09,22,05,00,11.10
2009,09,22,05,01,11.10
2009,09,22,05,02,11.10
2009,09,22,05,03,11.10
2009,09,22,05,04,11.10
2009,09,22,05,05,11.10
2009,09,22,05,06,11.10
2009,09,22,05,07,11.10
2009,09,22,05,08,11.10
2009,09,22,05,09,11.20
2009,09,22,05,10,11.10
2009,09,22,05,11,11.20
2009,09,22,05,12,11.20
2009,09,22,05,13,11.20
2009,09,22,05,14,11.20
2009,09,22,05,15,11.20
2009,09,22,05,16,11.20
2009,09,22,05,17,11.30
2009,09,22,05,18,11.30
2009,09,22,05,19,11.30
2009,09,22,05,20,11.30
2009,09,22,05,21,11.30
2009,09,22,05,22,11.30
2009,09,22,05,23,11.30
2009,09,22,05,24,11.20
2009,09,22,05,25,11.20
2009,09,22,05,26,11.20
2009,09,22,05,27,11.20
2009,09,22,05,28,11.10
2009,09,22,05,29,11.10
2009,09,22,05,30,11.10
2009,09,22,05,31,11.00
2009,09,22,05,32,11.00
2009,09,22,05,33,11.00
2009,09,22,05,34,11.00
2009,09,22,05,35,10.90
2009,09,22,05,36,10.90
2009,09,22,05,37,10.90
2009,09,22,05,38,10.90
2009,09,22,05,39,10.90
2009,09,22,05,40,10.90
2009,09,22,05,41,10.90
2009,09,22,05,42,10.90
2009,09,22,05,43,10.90
2009,09,22,05,44,10.90
2009,09,22,05,45,10.90
2009,09,22,05,46,10.90
2009,09,22,05,47,10.90
2009,09,22,05,48,10.90
2009,09,22,05,49,10.90
2009,09,22,05,50,10.90
2009,09,22,05,51,10.90
2009,09,22,05,52,10.90
2009,09,22,05,53,10.90
2009,09,22,05,54,10.90
2009,09,22,05,55,10.90
2009,09,22,05,56,10.90
2009,09,22,05,57,10.90
2009,09,22,05,58,10.90
2009,09,22,05,59,10.90
2009,09,22,06,00,10.90
2009,09,22,06,01,10.90
2009,09,22,06,02,10.90
2009,09,22,06,03,10.90
2009,09,22,06,04,11.00
2009,09,22,06,05,11.00
2009,09,22,06,06,11.00
2009,09,22,06,07,11.10
2009,09,22,06,08,11.10
2009,09,22,06,09,11.10
2009,09,22,06,10,11.10
2009,09,22,06,11,11.10
2009,09,22,06,12,11.10
2009,09,22,06,13,11.10
2009,09,22,06,14,11.10
2009,09,22,06,15,11.10
2009,09,22,06,16,11.10
2009,09,22,06,17,11.10
2009,09,22,06,18,11.10
2009,09,22,06,19,11.10
2009,09,22,06,20,11.00
2009,09,22,06,21,11.00
2009,09,22,06,22,11.00
2009,09,22,06,23,11.00
2009,09,22,06,24,11.00
2009,09,22,06,25,11.00
2009,09,22,06,26,11.00
2009,09,22,06,27,11.00
2009,09,22,06,28,11.00
2009,09,22,06,29,11.00
2009,09,22,06,30,11.00
2009,09,22,06,31,11.00
2009,09,22,06,32,10.90
2009,09,22,06,33,10.90
2009,09,22,06,34,10.90
2009,09,22,06,35,10.90
2009,09,22,06,36,10.90
2009,09,22,06,37,10.80
2009,09,22,06,38,10.80
2009,09,22,06,39,10.80
2009,09,22,06,40,10.80
2009,09,22,06,41,10.80
2009,09,22,06,42,10.80
2009,09,22,06,43,10.80
2009,09,22,06,44,10.80
2009,09,22,06,45,10.80
2009,09,22,06,46,10.80
2009,09,22,06,47,10.80
2009,09,22,06,48,10.90
2009,09,22,06,49,10.90
2009,09,22,06,50,10.90
2009,09,22,06,51,10.90
2009,09,22,06,52,10.90
2009,09,22,06,53,10.90
2009,09,22,06,54,10.80
2009,09,22,06,55,10.80
2009,09,22,06,56,10.80
2009,09,22,06,57,10.80
2009,09,22,06,58,10.80
2009,09,22,06,59,10.80
2009,09,22,07,00,10.80
2009,09,22,07,01,10.80
2009,09,22,07,02,10.80
2009,09,22,07,03,10.80
2009,09,22,07,04,10.80
2009,09,22,07,05,10.80
2009,09,22,07,06,10.80
2009,09,22,07,07,10.80
2009,09,22,07,08,10.80
2009,09,22,07,09,10.80
2009,09,22,07,10,10.80
2009,09,22,07,11,10.80
2009,09,22,07,12,10.70
2009,09,22,07,13,10.70
2009,09,22,07,14,10.70
2009,09,22,07,15,10.70
2009,09,22,07,16,10.70
2009,09,22,07,17,10.70
2009,09,22,07,18,10.70
2009,09,22,07,19,10.70
2009,09,22,07,20,10.70
2009,09,22,07,21,10.70
2009,09,22,07,22,10.80
2009,09,22,07,23,10.80
2009,09,22,07,24,10.80
2009,09,22,07,25,10.80
2009,09,22,07,26,10.80
2009,09,22,07,27,10.80
2009,09,22,07,28,10.80
2009,09,22,07,29,10.80
2009,09,22,07,30,10.80
2009,09,22,07,31,10.90
2009,09,22,07,32,10.90
2009,09,22,07,33,10.90
2009,09,22,07,34,10.90
2009,09,22,07,35,10.90
2009,09,22,07,36,11.00
2009,09,22,07,37,11.00
2009,09,22,07,38,11.10
2009,09,22,07,39,11.10
2009,09,22,07,40,11.10
2009,09,22,07,41,11.20
2009,09,22,07,42,11.20
2009,09,22,07,43,11.20
2009,09,22,07,44,11.20
2009,09,22,07,45,11.30
2009,09,22,07,46,11.30
2009,09,22,07,47,11.30
2009,09,22,07,48,11.40
2009,09,22,07,49,11.40
2009,09,22,07,50,11.40
2009,09,22,07,51,11.50
2009,09,22,07,52,11.60
2009,09,22,07,53,11.70
2009,09,22,07,54,11.80
2009,09,22,07,55,11.90
2009,09,22,07,56,12.00
2009,09,22,07,57,12.00
2009,09,22,07,58,12.10
2009,09,22,07,59,12.10
2009,09,22,08,00,12.10
2009,09,22,08,01,12.10
2009,09,22,08,02,12.20
2009,09,22,08,03,12.20
2009,09,22,08,04,12.20
2009,09,22,08,05,12.30
2009,09,22,08,06,12.30
2009,09,22,08,07,12.40
2009,09,22,08,08,12.50
2009,09,22,08,09,12.60
2009,09,22,08,10,12.60
2009,09,22,08,11,12.70
2009,09,22,08,12,12.80
2009,09,22,08,13,12.80
2009,09,22,08,14,12.90
2009,09,22,08,15,13.00
2009,09,22,08,16,13.10
2009,09,22,08,17,13.20
2009,09,22,08,18,13.30
2009,09,22,08,19,13.40
2009,09,22,08,20,13.40
2009,09,22,08,21,13.50
2009,09,22,08,22,13.60
2009,09,22,08,23,13.70
2009,09,22,08,24,13.80
2009,09,22,08,25,13.80
2009,09,22,08,26,13.90
2009,09,22,08,27,14.00
2009,09,22,08,28,14.10
2009,09,22,08,29,14.20
2009,09,22,08,30,14.20
2009,09,22,08,31,14.40
2009,09,22,08,32,14.50
2009,09,22,08,33,14.60
2009,09,22,08,34,14.70
2009,09,22,08,35,14.80
2009,09,22,08,36,15.00
2009,09,22,08,37,15.00
2009,09,22,08,38,15.00
2009,09,22,08,39,15.20
2009,09,22,08,40,15.40
2009,09,22,08,41,15.50
2009,09,22,08,42,15.60
2009,09,22,08,43,15.70
2009,09,22,08,44,15.80
2009,09,22,08,45,15.90
2009,09,22,08,46,15.90
2009,09,22,08,47,15.90
2009,09,22,08,48,15.90
2009,09,22,08,49,15.90
2009,09,22,08,50,16.00
2009,09,22,08,51,16.00
2009,09,22,08,52,16.00
2009,09,22,08,53,16.10
2009,09,22,08,54,16.20
2009,09,22,08,55,16.40
2009,09,22,08,56,16.40
2009,09,22,08,57,16.40
2009,09,22,08,58,16.50
2009,09,22,08,59,16.50
2009,09,22,09,00,16.50
2009,09,22,09,01,16.50
2009,09,22,09,02,16.60
2009,09,22,09,03,16.60
2009,09,22,09,04,16.60
2009,09,22,09,05,16.60
2009,09,22,09,06,16.60
2009,09,22,09,07,16.70
2009,09,22,09,08,16.70
2009,09,22,09,09,16.80
2009,09,22,09,10,16.80
2009,09,22,09,11,16.90
2009,09,22,09,12,17.00
2009,09,22,09,13,17.10
2009,09,22,09,14,17.20
2009,09,22,09,15,17.30
2009,09,22,09,16,17.40
2009,09,22,09,17,17.40
2009,09,22,09,18,17.50
2009,09,22,09,19,17.50
2009,09,22,09,20,17.60
2009,09,22,09,21,17.70
2009,09,22,09,22,17.70
2009,09,22,09,23,17.80
2009,09,22,09,24,17.90
2009,09,22,09,25,18.00
2009,09,22,09,26,18.00
2009,09,22,09,27,18.10
2009,09,22,09,28,18.10
2009,09,22,09,29,18.10
2009,09,22,09,30,18.10
2009,09,22,09,31,18.10
2009,09,22,09,32,18.10
2009,09,22,09,33,18.10
2009,09,22,09,34,18.10
2009,09,22,09,35,18.20
2009,09,22,09,36,18.20
2009,09,22,09,37,18.30
2009,09,22,09,38,18.30
2009,09,22,09,39,18.30
2009,09,22,09,40,18.30
2009,09,22,09,41,18.40
2009,09,22,09,42,18.30
2009,09,22,09,43,18.30
2009,09,22,09,44,18.30
2009,09,22,09,45,18.30
2009,09,22,09,46,18.20
2009,09,22,09,47,18.20
2009,09,22,09,48,18.30
2009,09,22,09,49,18.30
2009,09,22,09,50,18.20
2009,09,22,09,51,18.20
2009,09,22,09,52,18.20
2009,09,22,09,53,18.10
2009,09,22,09,54,18.00
2009,09,22,09,55,18.00
2009,09,22,09,56,17.90
2009,09,22,09,57,17.90
2009,09,22,09,58,17.90
2009,09,22,09,59,17.90
2009,09,22,10,00,17.90
2009,09,22,10,01,18.00
2009,09,22,10,02,18.10
2009,09,22,10,03,18.10
2009,09,22,10,04,18.20
2009,09,22,10,05,18.30
2009,09,22,10,06,18.40
2009,09,22,10,07,18.50
2009,09,22,10,08,18.50
2009,09,22,10,09,18.50
2009,09,22,10,10,18.50
2009,09,22,10,11,18.50
2009,09,22,10,12,18.40
2009,09,22,10,13,18.40
2009,09,22,10,14,18.50
2009,09,22,10,15,18.50
2009,09,22,10,16,18.60
2009,09,22,10,17,18.60
2009,09,22,10,18,18.70
2009,09,22,10,19,18.70
2009,09,22,10,20,18.70
2009,09,22,10,21,18.70
2009,09,22,10,22,18.70
2009,09,22,10,23,18.70
2009,09,22,10,24,18.70
2009,09,22,10,25,18.80
2009,09,22,10,26,18.90
2009,09,22,10,27,19.00
2009,09,22,10,28,19.10
2009,09,22,10,29,19.20
2009,09,22,10,30,19.30
2009,09,22,10,31,19.40
2009,09,22,10,32,19.40
2009,09,22,10,33,19.50
2009,09,22,10,34,19.50
2009,09,22,10,35,19.70
2009,09,22,10,36,19.80
2009,09,22,10,37,19.80
2009,09,22,10,38,19.60
2009,09,22,10,39,19.40
2009,09,22,10,40,19.10
2009,09,22,10,41,18.80
2009,09,22,10,42,18.60
2009,09,22,10,43,18.50
2009,09,22,10,44,18.40
2009,09,22,10,45,18.30
2009,09,22,10,46,18.30
2009,09,22,10,47,18.20
2009,09,22,10,48,18.20
2009,09,22,10,49,18.20
2009,09,22,10,50,18.30
2009,09,22,10,51,18.30
2009,09,22,10,52,18.30
2009,09,22,10,53,18.40
2009,09,22,10,54,18.40
2009,09,22,10,55,18.40
2009,09,22,10,56,18.40
2009,09,22,10,57,18.40
2009,09,22,10,58,18.40
2009,09,22,10,59,18.40
2009,09,22,11,00,18.40
2009,09,22,11,01,18.40
2009,09,22,11,02,18.50
2009,09,22,11,03,18.60
2009,09,22,11,04,18.60
2009,09,22,11,05,18.60
2009,09,22,11,06,18.50
2009,09,22,11,07,18.50
2009,09,22,11,08,18.60
2009,09,22,11,09,18.60
2009,09,22,11,10,18.60
2009,09,22,11,11,18.60
2009,09,22,11,12,18.60
2009,09,22,11,13,18.60
2009,09,22,11,14,18.70
2009,09,22,11,15,18.80
2009,09,22,11,16,18.90
2009,09,22,11,17,19.10
2009,09,22,11,18,19.20
2009,09,22,11,19,19.30
2009,09,22,11,20,19.40
2009,09,22,11,21,19.40
2009,09,22,11,22,19.40
2009,09,22,11,23,19.40
2009,09,22,11,24,19.40
2009,09,22,11,25,19.40
2009,09,22,11,26,19.40
2009,09,22,11,27,19.40
2009,09,22,11,28,19.40
2009,09,22,11,29,19.40
2009,09,22,11,30,19.50
2009,09,22,11,31,19.50
2009,09,22,11,32,19.50
2009,09,22,11,33,19.50
2009,09,22,11,34,19.40
2009,09,22,11,35,19.40
2009,09,22,11,36,19.40
2009,09,22,11,37,19.30
2009,09,22,11,38,19.30
2009,09,22,11,39,19.20
2009,09,22,11,40,19.10
2009,09,22,11,41,18.90
2009,09,22,11,42,18.80
2009,09,22,11,43,18.60
2009,09,22,11,44,18.50
2009,09,22,11,45,18.50
2009,09,22,11,46,18.40
2009,09,22,11,47,18.30
2009,09,22,11,48,18.30
2009,09,22,11,49,18.20
2009,09,22,11,50,18.20
2009,09,22,11,51,18.20
2009,09,22,11,52,18.20
2009,09,22,11,53,18.20
2009,09,22,11,54,18.30
2009,09,22,11,55,18.30
2009,09,22,11,56,18.30
2009,09,22,11,57,18.40
2009,09,22,11,58,18.40
2009,09,22,11,59,18.50
2009,09,22,12,00,18.60
2009,09,22,12,01,18.70
2009,09,22,12,02,18.80
2009,09,22,12,03,18.90
2009,09,22,12,04,19.00
2009,09,22,12,05,19.10
2009,09,22,12,06,19.10
2009,09,22,12,07,19.20
2009,09,22,12,08,19.20
2009,09,22,12,09,19.30
2009,09,22,12,10,19.20
2009,09,22,12,11,19.20
2009,09,22,12,12,19.30
2009,09,22,12,13,19.30
2009,09,22,12,14,19.30
2009,09,22,12,15,19.30
2009,09,22,12,16,19.40
2009,09,22,12,17,19.40
2009,09,22,12,18,19.50
2009,09,22,12,19,19.70
2009,09,22,12,20,19.80
2009,09,22,12,21,19.90
2009,09,22,12,22,20.00
2009,09,22,12,23,20.10
2009,09,22,12,24,20.10
2009,09,22,12,25,20.20
2009,09,22,12,26,20.30
2009,09,22,12,27,20.50
2009,09,22,12,28,20.60
2009,09,22,12,29,20.70
2009,09,22,12,30,20.70
2009,09,22,12,31,20.80
2009,09,22,12,32,20.90
2009,09,22,12,33,21.00
2009,09,22,12,34,21.10
2009,09,22,12,35,21.20
2009,09,22,12,36,21.30
2009,09,22,12,37,21.30
2009,09,22,12,38,21.40
2009,09,22,12,39,21.40
2009,09,22,12,40,21.50
2009,09,22,12,41,21.60
2009,09,22,12,42,21.70
2009,09,22,12,43,21.70
2009,09,22,12,44,21.70
2009,09,22,12,45,21.70
2009,09,22,12,46,21.70
2009,09,22,12,47,21.80
2009,09,22,12,48,21.70
2009,09,22,12,49,21.70
2009,09,22,12,50,21.60
2009,09,22,12,51,21.50
2009,09,22,12,52,21.40
2009,09,22,12,53,21.30
2009,09,22,12,54,21.30
2009,09,22,12,55,21.20
2009,09,22,12,56,21.20
2009,09,22,12,57,21.20
2009,09,22,12,58,21.20
2009,09,22,12,59,21.20
2009,09,22,13,00,21.30
2009,09,22,13,01,21.40
2009,09,22,13,02,21.30
2009,09,22,13,03,21.20
2009,09,22,13,04,21.00
2009,09,22,13,05,20.80
2009,09,22,13,06,20.60
2009,09,22,13,07,20.30
2009,09,22,13,08,20.10
2009,09,22,13,09,19.90
2009,09,22,13,10,19.60
2009,09,22,13,11,19.50
2009,09,22,13,12,19.40
2009,09,22,13,13,19.30
2009,09,22,13,14,19.30
2009,09,22,13,15,19.20
2009,09,22,13,16,19.10
2009,09,22,13,17,19.10
2009,09,22,13,18,19.10
2009,09,22,13,19,19.00
2009,09,22,13,20,19.00
2009,09,22,13,21,18.90
2009,09,22,13,22,18.80
2009,09,22,13,23,18.80
2009,09,22,13,24,18.90
2009,09,22,13,25,18.90
2009,09,22,13,26,18.90
2009,09,22,13,27,18.90
2009,09,22,13,28,18.90
2009,09,22,13,29,18.90
2009,09,22,13,30,18.90
2009,09,22,13,31,19.00
2009,09,22,13,32,19.00
2009,09,22,13,33,19.00
2009,09,22,13,34,19.00
2009,09,22,13,35,19.10
2009,09,22,13,36,19.10
2009,09,22,13,37,19.10
2009,09,22,13,38,19.20
2009,09,22,13,39,19.20
2009,09,22,13,40,19.20
2009,09,22,13,41,19.20
2009,09,22,13,42,19.20
2009,09,22,13,43,19.20
2009,09,22,13,44,19.20
2009,09,22,13,45,19.30
2009,09,22,13,46,19.30
2009,09,22,13,47,19.40
2009,09,22,13,48,19.50
2009,09,22,13,49,19.60
2009,09,22,13,50,19.60
2009,09,22,13,51,19.60
2009,09,22,13,52,19.60
2009,09,22,13,53,19.60
2009,09,22,13,54,19.60
2009,09,22,13,55,19.50
2009,09,22,13,56,19.50
2009,09,22,13,57,19.60
2009,09,22,13,58,19.60
2009,09,22,13,59,19.70
2009,09,22,14,00,19.70
2009,09,22,14,01,19.50
2009,09,22,14,02,19.40
2009,09,22,14,03,19.40
2009,09,22,14,04,19.30
2009,09,22,14,05,19.20
2009,09,22,14,06,19.10
2009,09,22,14,07,19.00
2009,09,22,14,08,19.00
2009,09,22,14,09,18.90
2009,09,22,14,10,18.90
2009,09,22,14,11,18.90
2009,09,22,14,12,18.90
2009,09,22,14,13,18.90
2009,09,22,14,14,18.90
2009,09,22,14,15,18.80
2009,09,22,14,16,18.80
2009,09,22,14,17,18.80
2009,09,22,14,18,18.90
2009,09,22,14,19,18.90
2009,09,22,14,20,19.00
2009,09,22,14,21,19.10
2009,09,22,14,22,19.20
2009,09,22,14,23,19.30
2009,09,22,14,24,19.30
2009,09,22,14,25,19.30
2009,09,22,14,26,19.30
2009,09,22,14,27,19.30
2009,09,22,14,28,19.20
2009,09,22,14,29,19.30
2009,09,22,14,30,19.20
2009,09,22,14,31,19.20
2009,09,22,14,32,19.20
2009,09,22,14,33,19.20
2009,09,22,14,34,19.20
2009,09,22,14,35,19.20
2009,09,22,14,36,19.30
2009,09,22,14,37,19.20
2009,09,22,14,38,19.20
2009,09,22,14,39,19.20
2009,09,22,14,40,19.30
2009,09,22,14,41,19.30
2009,09,22,14,42,19.30
2009,09,22,14,43,19.30
2009,09,22,14,44,19.30
2009,09,22,14,45,19.20
2009,09,22,14,46,19.20
2009,09,22,14,47,19.20
2009,09,22,14,48,19.10
2009,09,22,14,49,19.10
2009,09,22,14,50,19.10
2009,09,22,14,51,19.10
2009,09,22,14,52,19.10
2009,09,22,14,53,19.10
2009,09,22,14,54,19.20
2009,09,22,14,55,19.30
2009,09,22,14,56,19.30
2009,09,22,14,57,19.30
2009,09,22,14,58,19.30
2009,09,22,14,59,19.30
2009,09,22,15,00,19.30
2009,09,22,15,01,19.20
2009,09,22,15,02,19.10
2009,09,22,15,03,19.10
2009,09,22,15,04,19.10
2009,09,22,15,05,19.10
2009,09,22,15,06,19.10
2009,09,22,15,07,19.00
2009,09,22,15,08,19.00
2009,09,22,15,09,19.00
2009,09,22,15,10,19.10
2009,09,22,15,11,19.10
2009,09,22,15,12,19.10
2009,09,22,15,13,19.00
2009,09,22,15,14,19.00
2009,09,22,15,15,19.00
2009,09,22,15,16,19.10
2009,09,22,15,17,19.20
2009,09,22,15,18,19.30
2009,09,22,15,19,19.40
2009,09,22,15,20,19.50
2009,09,22,15,21,19.50
2009,09,22,15,22,19.50
2009,09,22,15,23,19.40
2009,09,22,15,24,19.40
2009,09,22,15,25,19.30
2009,09,22,15,26,19.30
2009,09,22,15,27,19.30
2009,09,22,15,28,19.20
2009,09,22,15,29,19.20
2009,09,22,15,30,19.20
2009,09,22,15,31,19.20
2009,09,22,15,32,19.20
2009,09,22,15,33,19.10
2009,09,22,15,34,19.20
2009,09,22,15,35,19.20
2009,09,22,15,36,19.20
2009,09,22,15,37,19.20
2009,09,22,15,38,19.20
2009,09,22,15,39,19.10
2009,09,22,15,40,19.10
2009,09,22,15,41,19.10
2009,09,22,15,42,19.10
2009,09,22,15,43,19.10
2009,09,22,15,44,19.10
2009,09,22,15,45,19.10
2009,09,22,15,46,19.20
2009,09,22,15,47,19.20
2009,09,22,15,48,19.10
2009,09,22,15,49,19.10
2009,09,22,15,50,19.20
2009,09,22,15,51,19.20
2009,09,22,15,52,19.30
2009,09,22,15,53,19.30
2009,09,22,15,54,19.30
2009,09,22,15,55,19.30
2009,09,22,15,56,19.30
2009,09,22,15,57,19.30
2009,09,22,15,58,19.30
2009,09,22,15,59,19.30
2009,09,22,16,00,19.20
2009,09,22,16,01,19.20
2009,09,22,16,02,19.10
2009,09,22,16,03,19.20
2009,09,22,16,04,19.20
2009,09,22,16,05,19.20
2009,09,22,16,06,19.20
2009,09,22,16,07,19.10
2009,09,22,16,08,19.10
2009,09,22,16,09,19.10
2009,09,22,16,10,19.10
2009,09,22,16,11,19.20
2009,09,22,16,12,19.20
2009,09,22,16,13,19.20
2009,09,22,16,14,19.20
2009,09,22,16,15,19.20
2009,09,22,16,16,19.30
2009,09,22,16,17,19.20
2009,09,22,16,18,19.30
2009,09,22,16,19,19.20
2009,09,22,16,20,19.20
2009,09,22,16,21,19.20
2009,09,22,16,22,19.30
2009,09,22,16,23,19.30
2009,09,22,16,24,19.30
2009,09,22,16,25,19.30
2009,09,22,16,26,19.40
2009,09,22,16,27,19.40
2009,09,22,16,28,19.40
2009,09,22,16,29,19.40
2009,09,22,16,30,19.40
2009,09,22,16,31,19.40
2009,09,22,16,32,19.40
2009,09,22,16,33,19.40
2009,09,22,16,34,19.30
2009,09,22,16,35,19.30
2009,09,22,16,36,19.40
2009,09,22,16,37,19.40
2009,09,22,16,38,19.40
2009,09,22,16,39,19.40
2009,09,22,16,40,19.50
2009,09,22,16,41,19.40
2009,09,22,16,42,19.40
2009,09,22,16,43,19.30
2009,09,22,16,44,19.30
2009,09,22,16,45,19.30
2009,09,22,16,46,19.30
2009,09,22,16,47,19.30
2009,09,22,16,48,19.30
2009,09,22,16,49,19.30
2009,09,22,16,50,19.20
2009,09,22,16,51,19.20
2009,09,22,16,52,19.20
2009,09,22,16,53,19.20
2009,09,22,16,54,19.20
2009,09,22,16,55,19.30
2009,09,22,16,56,19.30
2009,09,22,16,57,19.40
2009,09,22,16,58,19.40
2009,09,22,16,59,19.40
2009,09,22,17,00,19.50
2009,09,22,17,01,19.60
2009,09,22,17,02,19.60
2009,09,22,17,03,19.70
2009,09,22,17,04,19.70
2009,09,22,17,05,19.80
2009,09,22,17,06,19.80
2009,09,22,17,07,19.90
2009,09,22,17,08,19.90
2009,09,22,17,09,19.90
2009,09,22,17,10,20.00
2009,09,22,17,11,20.00
2009,09,22,17,12,20.00
2009,09,22,17,13,20.00
2009,09,22,17,14,20.10
2009,09,22,17,15,20.10
2009,09,22,17,16,20.10
2009,09,22,17,17,20.10
2009,09,22,17,18,20.10
2009,09,22,17,19,20.10